Tracking 19847 objects as of 15-Sep-2019
HD Live streaming from Space Station
objects crossing your sky now

FENGYUN 1C DEB

Track FENGYUN 1C DEB now!
10-day predictions


NORAD ID: 37038
Int'l Code: 1999-025EDW
Perigee: 774.1 km
Apogee: 855.3 km
Inclination: 99.0 °
Period: 101.0 minutes
Semi major axis: 7185 km
RCS: 0.0074 m2 (small)
Launch date: May 10, 1999
Source: People's Republic of China (PRC)
Launch site: Taiyaun Space Center, China (TSC)

Note: This is SATELLITE DEBRIS
aabbcc
Your satellite tracking list
Your tracking list is empty




NASA's NSSDC Master Catalog

Two Line Element Set (TLE):
1 37038U 99025EDW 19253.11759556  .00001217  00000-0  52847-3 0  9995
2 37038  99.0418   6.7119 0056529 347.3846  12.5914 14.25278696590163
Source of the keplerian elements: AFSPC